Regional Weather Roundup
Issued by NWS Little Rock, AR

Home | Current Version | Previous Version | Graphics & Text | Print | Product List | Glossary On
Versions: 1 2 3 4 5 6 7 8 9 10 11 12 13 14 15 16 17 18 19 20 21 22 23 24 25 26 27 28 29 30 31 32 33 34 35 36 37 38 39
000
ASUS44 KLZK 251905
RWRLZK

WEATHER ROUNDUP FOR ARKANSAS
NATIONAL WEATHER SERVICE LITTLE ROCK AR
100 PM CST THU DEC 25 2014

NOTE: "FAIR" INDICATES FEW OR NO CLOUDS BELOW 12,000 FEET WITH NO
SIGNIFICANT WEATHER AND/OR OBSTRUCTIONS TO VISIBILITY.

ARZ001-003-010-029-252000-
NORTHWEST ARKANSAS

CITY           SKY/WX    TMP DP  RH WIND       PRES   REMARKS
FAYETTEVILLE   MOSUNNY   48  30  49 S21G32    29.94F
FORT SMITH     SUNNY     57  24  28 SW17G32   29.97F
HARRISON       MOSUNNY   48  28  46 S15G25    29.96F
BENTONVILLE    MOSUNNY   52  27  37 SW20G30   29.93F
ROGERS         MOSUNNY   52  27  38 S25G36    29.92F
SILOAM SPGS    MOSUNNY   50  28  43 S30G37    29.92F
HIGHFILL       MOSUNNY   51  29  42 S23G31    29.91F
SPRINGDALE     MOSUNNY   50  28  43 S17G36    29.95F
$$

ARZ004-005-016-252000-
NORTH CENTRAL ARKANSAS

CITY           SKY/WX    TMP DP  RH WIND       PRES   REMARKS
BATESVILLE     SUNNY     52  34  50 S13       30.07F
FLIPPIN        SUNNY     52  28  40 S9G17     29.99F
MTN HOME       SUNNY     50  31  48 S12G23    30.00F
$$

ARZ040-041-252000-
WEST CENTRAL ARKANSAS

CITY           SKY/WX    TMP DP  RH WIND       PRES   REMARKS
MENA           MOSUNNY   54  32  43 S9G18     30.00F
MOUNT IDA      SUNNY     54  31  41 SW8G20    30.02F
$$

ARZ009-017-025-026-028-252000-
NORTHEAST ARKANSAS

CITY           SKY/WX    TMP DP  RH WIND       PRES   REMARKS
CORNING        FAIR      48  39  71 S16G22    30.10F
JONESBORO      SUNNY     50  37  61 S18       30.11F
NEWPORT        SUNNY     53  37  54 S15G24    30.11F
WALNUT RIDGE   SUNNY     50  36  57 S22       30.08F
BLYTHEVILLE    SUNNY     50  38  63 S12       30.13F
$$

ARZ022-023-033-042-044-252000-
CENTRAL ARKANSAS

CITY           SKY/WX    TMP DP  RH WIND       PRES   REMARKS
LITTLE ROCK    MOSUNNY   57  30  35 S14G22    30.10F
N LITTLE ROCK  MOSUNNY   54  35  49 S12G24    30.10F
JACKSONVILLE   MOSUNNY   55  34  44 S10       30.09F
SEARCY         SUNNY     54  37  52 S15       30.11F
HOT SPRINGS    SUNNY     55  31  39 SW15G26   30.07F
RUSSELLVILLE   MOSUNNY   53  30  41 S10       30.05F
CLINTON        FAIR      54  32  43 S9G17     30.07F
$$

ARZ036-252000-
EAST ARKANSAS

CITY           SKY/WX    TMP DP  RH WIND       PRES   REMARKS
WEST MEMPHIS   SUNNY     50  39  66 S15       30.14F
$$

ARZ050-053-066-070-073-252000-
SOUTHWEST ARKANSAS

CITY           SKY/WX    TMP DP  RH WIND       PRES   REMARKS
ARKADELPHIA    FAIR      58  39  49 S15       30.09F
CAMDEN         SUNNY     59  32  36 MISG      30.11F
TEXARKANA      SUNNY     58  30  34 S14       30.06F
EL DORADO      SUNNY     58  33  39 S14G22    30.11F
DE QUEEN       SUNNY     57  28  33 S14G22    30.02F
$$

ARZ056-057-069-252000-
SOUTHEAST ARKANSAS

CITY           SKY/WX    TMP DP  RH WIND       PRES   REMARKS
PINE BLUFF     SUNNY     56  33  42 S17       30.13F
STUTTGART      SUNNY     55  36  47 S18       30.14S
MONTICELLO     SUNNY     56  34  43 S13       30.14F

$$




USA.gov is the U.S. government's official web portal to all federal, state and local government web resources and services.